SCP
0 0 0 0 0 0 0 -0 -0 -0 -0 -0 -0 -0 -0 0 0 0 0 -0 -0 0 0 0 0 0 0 0 0 0 0 0 0 0 0 0 0 0 0 -0 -0 -0 0
0 0 0 0 0 0 0 -0 -0 -0 -0 -0 -0 -0 0 0 0 0 -0 -0 0 0 -0 -0 -0 -0 0 0 0 0 0 0 0 0 0 0 0 0 0 -0 -0 -0 0
0 0 0 0 0 0 0 -0 -0 -0 -0 -0 -0 -0 0 0 0 0 -0 -0 -0 0 0 -0 -0 0 0 0 0 0 0 -0 0 0 0 0 0 0 0 0 0 0 0
0 0 0 0 0 0 0 -0 -0 -0 -0 -0 -0 -0 0 0 0 -0 -0 -0 -0 -0 -0 -0 0 0 0 0 0 0 0 0 0 0 0 0 0 0 0 0 0 0 0
0 0 0 0 0 0 0 0 -0 0 -0 -0 -0 0 0 0 0 0 0 0 0 0 0 0 0 0 0 0 0 0 0 0 0 0 0 0 0 0 0 0 0 0 0
0 0 0 0 0 0 0 0 -0 -0 -0 -0 -0 0 -0 -0 -0 -0 0 0 0 0 0 0 0 0 0 0 0 0 0 0 0 0 0 0 0 0 0 0 0 0 0
0 0 0 0 0 0 0 0 -0 -0 -0 0 -0 -0 -0 -0 -0 -0 -0 -0 0 0 0 0 0 0 0 0 -0 -0 -0 -0 0 -0 -0 0 0 0 0 0 0 0 0
0 0 0 0 0 0 0 0 -0 0 0 -0 -0 -0 -0 -0 0 0 -0 0 -0 0 0 0 0 0 0 -0 -0 -0 -0 -0 0 0 0 0 0 0 0 0 0 0 0
0 0 0 0 0 0 0 0 0 -0 0 0 0 0 0 0 0 0 -0 0 0 0 0 0 0 0 -0 -0 -0 -0 -0 -0 -0 -0 -0 -0 -0 -0 -0 -0 -0 0 0
0 0 0 0 0 0 0 0 0 0 -0 0 0 0 0 0 0 0 0 0 0 0 0 0 0 0 -0 -0 -0 -0 -0 0 0 -0 -0 -0 -0 -0 -0 -0 -0 -0 -0
0 0 0 0 0 0 0 0 0 0 0 0 -0 0 0 0 0 0 0 0 0 0 0 0 0 -0 -0 -0 -0 0 0 -0 -0 -0 0 0 -0 -0 -0 -0 -0 -0 0
0 0 0 0 0 0 0 0 0 0 0 0 0 0 0 0 0 0 0 0 0 0 0 0 0 -0 -0 -0 -0 -0 -0 -0 0 0 0 0 0 0 0 -0 -0 0 0
0 0 0 0 0 0 0 0 0 0 0 0 0 0 0 0 0 -0 -0 -0 0 0 0 0 -0 -0 -0 -0 -0 -0 -0 0 0 0 0 0 0 0 0 0 0 0 0
0 0 0 0 0 0 0 0 0 0 0 0 0 0 0 0 0 0 0 0 -0 0 -0 0 0 0 -0 -0 0 0 0 0 0 0 0 0 0 0 0 0 0 0 0
0 0 0 0 0 0 0 0 0 0 0 0 0 0 0 0 0 0 0 0 0 0 0 0 0 0 0 0 0 0 0 0 0 0 0 0 0 0 0 0 0 0 0
0 0 0 0 0 0 0 0 0 0 0 0 0 0 0 0 0 0 0 0 0 -0 0 0 0 0 0 0 0 0 0 0 0 0 0 0 0 0 0 0 0 0 0
0 0 0 0 0 0 0 0 0 0 0 0 0 0 0 0 0 0 0 0 0 0 0 0 0 0 0 0 0 0 0 0 0 0 0 0 0 0 0 0 0 0 0
0 0 0 0 0 0 0 0 0 0 0 0 0 0 0 0 0 0 0 0 0 0 0 0 0 0 0 0 0 0 0 0 0 0 0 0 0 0 0 0 0 0 0
0 0 0 0 0 0 0 0 0 0 0 0 0 0 0 0 0 0 0 0 0 0 0 0 0 0 0 0 0 0 0 0 0 0 0 0 0 0 0 0 0 0 0
0 0 0 0 0 0 0 0 0 0 0 0 0 0 0 0 0 0 0 0 0 0 0 0 0 0 0 0 0 0 0 0 0 0 0 0 0 0 0 0 0 0 0
0 0 0 0 0 0 0 0 0 0 0 0 0 0 0 0 0 0 0 0 0 0 0 0 0 0 0 0 0 0 0 0 0 0 0 0 0 0 0 0 0 0 0
0 0 0 0 0 0 0 0 0 0 0 0 0 0 0 0 0 0 0 0 0 0 0 0 0 0 0 0 0 0 0 0 0 0 0 0 0 0 0 0 0 0 0
0 0 0 0 0 0 0 0 0 0 0 0 0 0 0 0 0 0 0 0 0 0 0 0 0 0 0 0 0 0 0 0 0 0 0 0 0 0 0 0 0 0 0
0 0 0 0 0 0 0 0 0 0 0 0 0 0 0 0 0 0 0 0 0 0 0 0 0 0 0 0 0 0 0 0 0 0 0 0 0 0 0 0 0 0 0
0 0 0 0 0 0 0 0 0 0 0 0 0 0 0 0 0 0 0 0 0 0 0 0 0 0 0 0 0 0 0 0 0 0 0 0 0 0 0 0 0 0 0
0 0 0 0 0 0 0 0 0 0 0 0 0 0 0 0 0 0 0 0 0 0 0 0 0 0 0 0 0 0 0 0 0 0 0 0 0 0 0 0 0 0 0
Wind_Speed_500mb
15 17 20 20 17 12 11 11 12 11 11 7 5 1 7 9 3 5 21 33 35 39 33 31 38 37 31 33 48 42 41 36 27 32 28 31 27 23 21 19 16 14 7
19 19 24 24 19 15 15 15 13 13 14 13 10 8 10 4 7 17 20 34 35 33 26 27 36 33 40 50 42 40 38 21 10 24 32 32 31 26 22 18 15 11 6
22 21 27 26 22 18 18 15 12 11 16 16 13 10 12 13 14 18 24 33 35 34 23 36 49 48 40 38 40 39 29 23 15 17 28 32 29 27 22 16 12 10 9
24 24 29 29 23 18 16 13 14 15 19 23 19 16 21 15 18 23 28 36 36 43 39 46 43 37 36 30 32 30 24 25 16 15 24 29 26 29 24 19 17 13 11
27 28 30 30 27 19 13 14 15 17 18 24 26 28 23 17 25 29 32 34 37 40 44 42 34 27 18 20 22 22 19 16 16 18 23 25 25 27 21 20 20 14 10
31 31 32 32 26 20 18 18 22 19 25 31 35 28 22 24 29 33 31 40 41 40 42 39 34 27 26 24 22 18 15 13 19 19 21 23 26 26 23 20 17 17 10
33 35 35 33 26 21 21 22 27 29 31 31 28 22 28 28 35 37 33 42 38 33 44 42 33 31 29 23 18 20 24 25 21 19 19 21 23 23 20 21 18 17 18
37 40 39 36 32 27 27 31 34 33 31 31 28 24 26 35 35 36 42 44 34 33 31 39 28 25 22 21 25 31 32 30 25 21 18 14 16 14 13 14 16 19 19
45 43 44 39 36 34 36 37 41 38 34 31 28 29 30 36 35 32 39 49 36 33 33 33 27 25 24 22 25 31 28 27 26 19 16 14 15 15 14 12 14 16 17
48 43 46 43 39 35 41 42 41 39 38 30 24 30 32 35 36 33 32 37 39 37 34 33 34 29 30 27 29 25 26 24 20 20 18 16 17 15 13 13 13 12 11
44 44 49 47 45 39 45 47 44 40 36 32 30 31 35 36 40 39 33 34 40 38 40 38 36 36 37 36 27 23 15 17 20 19 19 20 17 15 13 12 10 8 7
47 48 53 51 49 43 47 49 46 42 37 34 32 36 36 40 33 37 35 32 39 42 40 43 42 43 39 33 29 22 19 18 19 22 21 20 19 18 16 14 13 12 13
51 52 55 55 52 49 48 51 48 47 45 41 41 43 38 45 44 39 32 30 36 43 43 46 47 41 37 33 28 25 24 23 23 23 22 21 21 21 21 21 20 17 17
51 55 57 60 58 52 54 52 48 48 50 47 48 46 45 46 44 42 37 41 46 47 46 43 39 38 34 31 32 30 27 27 25 23 23 25 28 29 26 23 22 28 30
45 54 59 64 63 58 57 56 57 50 51 51 44 42 43 49 49 47 48 48 46 45 45 42 39 38 36 33 31 29 31 30 27 26 28 31 32 30 29 33 34 36 33
44 56 62 66 69 65 62 60 61 62 58 52 45 39 30 32 46 45 45 47 47 43 44 39 36 35 35 34 34 35 33 29 33 33 33 33 32 34 37 42 42 38 34
38 53 62 66 73 73 70 70 68 68 63 60 53 42 31 37 44 48 53 50 46 43 39 37 37 39 38 37 35 33 33 37 36 36 35 35 35 39 43 46 45 39 35
28 45 61 67 73 77 75 73 73 71 70 66 61 50 42 39 47 54 55 51 48 45 40 38 39 40 39 36 36 35 38 38 39 37 36 37 41 44 47 46 41 36 32
29 39 52 62 71 76 80 78 77 74 74 76 74 66 54 49 51 55 57 54 50 49 46 43 40 37 37 35 34 37 37 38 40 40 42 45 48 49 48 44 40 34 29
39 39 47 53 65 73 83 85 83 78 78 83 82 79 72 69 66 63 61 59 56 53 53 53 45 37 34 32 37 40 40 43 44 46 46 48 50 49 47 43 37 32 29
43 44 44 56 68 76 86 90 85 84 85 89 85 82 78 70 62 71 71 69 64 60 60 59 50 41 34 37 38 40 44 47 48 47 50 54 57 55 49 43 38 32 27
43 48 49 52 66 76 83 87 84 83 88 91 87 82 78 75 68 65 71 72 66 63 63 62 53 45 38 37 41 43 46 47 46 47 53 59 60 56 50 44 40 35 31
48 53 53 61 62 71 79 86 87 84 89 94 90 87 86 78 71 67 66 72 68 65 66 68 60 54 47 41 42 40 39 39 41 47 57 62 60 57 52 46 41 37 33
60 58 60 62 71 71 77 85 90 86 87 94 96 91 88 81 71 67 66 67 68 68 68 70 66 59 53 45 43 45 46 47 46 50 56 60 61 57 52 46 42 37 31
63 68 66 67 72 83 82 85 90 91 88 93 98 96 90 86 78 70 69 72 71 71 70 71 68 64 59 51 43 45 48 48 49 55 61 62 59 55 51 47 42 37 31
67 70 75 70 73 81 91 93 91 96 90 90 97 98 95 90 83 75 72 76 76 75 74 72 69 66 65 61 54 50 50 48 51 59 64 63 59 57 53 47 41 36 30
Wind_Direction_500mb
231 216 201 193 188 199 226 222 214 211 193 186 191 191 152 139 119 136 151 148 146 149 158 161 154 158 165 168 169 176 173 172 176 179 180 181 183 180 182 182 185 185 205
231 214 208 193 195 204 227 237 236 212 202 183 181 173 162 119 121 134 142 169 156 160 156 147 163 167 154 154 170 169 173 177 160 185 187 186 186 187 185 179 187 186 194
233 213 208 203 201 205 231 235 227 209 203 196 189 181 168 152 134 136 151 155 168 171 152 137 139 144 148 161 172 189 195 213 221 234 206 190 185 185 180 177 177 196 206
230 216 208 207 209 214 231 239 230 232 210 193 188 179 153 142 170 144 140 143 142 149 151 148 151 156 155 165 179 193 193 200 218 191 183 180 177 177 175 182 184 192 203
229 218 208 204 209 211 204 212 225 215 201 176 174 168 149 139 159 147 146 148 147 152 152 157 156 157 158 151 161 177 188 189 168 164 163 168 174 176 180 187 196 193 204
224 217 205 205 211 194 193 210 212 195 169 154 155 161 162 159 160 159 149 152 148 150 158 161 165 164 166 179 182 184 164 189 169 156 165 164 169 173 171 177 184 181 186
218 217 206 202 204 183 189 191 172 167 160 156 152 159 171 163 157 161 160 156 156 151 163 159 166 163 164 166 178 167 153 141 142 145 155 153 155 162 165 167 163 187 212
215 214 208 201 191 185 181 177 168 160 162 159 162 160 162 162 158 164 170 170 163 160 159 169 169 166 179 174 175 171 160 150 146 146 148 151 158 157 166 177 193 207 210
214 212 208 202 192 193 184 179 173 170 174 176 171 166 171 166 164 170 180 189 193 182 177 182 181 182 175 181 176 174 165 156 146 153 154 156 156 167 177 187 193 189 182
216 212 207 203 199 193 188 187 187 187 183 189 184 180 186 186 179 181 185 187 193 192 191 202 196 186 173 168 171 171 166 160 159 160 157 159 163 163 167 173 179 194 195
220 212 209 205 200 196 195 196 197 198 190 197 193 194 184 188 193 191 190 200 201 197 190 178 175 174 164 158 158 156 167 173 167 160 165 168 162 160 163 161 165 165 167
218 213 211 206 200 198 201 198 203 202 200 199 202 197 192 185 178 187 192 199 207 208 190 177 169 165 164 161 161 166 177 176 170 173 176 164 156 153 154 146 133 128 128
218 215 212 207 203 202 205 199 205 209 209 203 195 192 186 178 184 183 184 187 186 183 176 170 166 165 166 167 175 182 183 178 182 179 169 162 159 157 146 141 136 134 133
219 218 211 208 205 206 201 202 210 207 201 201 190 190 187 177 180 171 175 176 176 174 169 167 170 170 175 184 185 184 183 180 180 179 180 172 162 151 147 143 148 137 132
217 220 215 211 210 210 207 212 209 206 202 199 199 195 190 191 186 177 171 171 175 177 177 177 180 184 187 191 194 193 187 184 184 186 182 170 159 156 157 153 144 134 133
222 217 217 214 212 215 215 211 207 206 207 206 203 188 192 204 195 185 182 184 176 185 186 191 193 199 202 202 198 196 194 197 190 187 174 167 167 165 164 150 139 138 136
233 222 220 218 216 219 217 214 209 207 209 203 195 194 197 206 201 198 188 182 186 191 200 202 204 201 198 198 203 209 211 193 187 180 175 174 173 167 158 148 145 144 140
237 229 224 223 221 222 224 222 219 219 214 196 193 193 192 205 204 198 192 191 196 200 205 208 204 200 200 205 208 204 193 189 183 180 180 180 173 165 157 153 149 148 144
242 232 231 226 226 224 230 228 225 221 214 200 195 189 193 208 207 203 203 204 213 213 205 201 201 206 206 206 204 197 195 192 187 187 188 181 171 166 160 158 155 151 151
254 239 232 236 228 227 230 234 229 222 216 206 202 193 192 200 211 211 211 212 212 213 206 197 199 199 204 205 198 197 196 193 193 193 187 178 171 168 168 163 160 160 159
260 245 238 237 230 228 230 235 233 229 220 210 208 206 204 211 220 219 217 217 212 208 206 201 200 202 204 203 201 202 199 200 199 193 184 180 176 172 171 169 167 166 168
262 252 240 240 233 229 231 235 236 233 225 214 210 210 210 210 213 221 219 218 214 208 207 208 206 207 209 208 203 201 201 201 200 195 189 185 181 176 177 177 174 173 172
261 255 249 236 236 230 230 232 237 234 228 221 216 213 212 212 214 220 222 220 216 212 209 209 211 212 208 205 202 201 203 205 205 203 195 189 184 181 181 182 180 179 177
255 255 253 246 235 232 228 229 233 238 235 228 222 219 217 215 214 218 222 220 218 216 213 212 212 214 215 210 205 203 201 201 203 202 197 193 189 185 184 184 184 183 181
254 251 251 249 240 235 233 227 230 233 238 234 227 223 220 219 217 218 220 219 219 219 217 214 212 213 215 214 215 211 208 208 205 198 194 193 193 190 189 189 191 186 183
251 247 249 247 247 239 234 231 227 231 235 236 232 227 225 222 218 218 220 221 219 218 218 216 214 216 216 214 213 216 212 208 209 198 195 193 194 192 191 191 190 189 186
Wind_Speed_850mb
15 17 20 20 17 12 11 11 12 11 11 7 5 1 7 9 3 5 21 33 35 39 33 31 38 37 31 33 48 42 41 36 27 32 28 31 27 23 21 19 16 14 7
19 19 24 24 19 15 15 15 13 13 14 13 10 8 10 4 7 17 20 34 35 33 26 27 36 33 40 50 42 40 38 21 10 24 32 32 31 26 22 18 15 11 6
22 21 27 26 22 18 18 15 12 11 16 16 13 10 12 13 14 18 24 33 35 34 23 36 49 48 40 38 40 39 29 23 15 17 28 32 29 27 22 16 12 10 9
24 24 29 29 23 18 16 13 14 15 19 23 19 16 21 15 18 23 28 36 36 43 39 46 43 37 36 30 32 30 24 25 16 15 24 29 26 29 24 19 17 13 11
27 28 30 30 27 19 13 14 15 17 18 24 26 28 23 17 25 29 32 34 37 40 44 42 34 27 18 20 22 22 19 16 16 18 23 25 25 27 21 20 20 14 10
31 31 32 32 26 20 18 18 22 19 25 31 35 28 22 24 29 33 31 40 41 40 42 39 34 27 26 24 22 18 15 13 19 19 21 23 26 26 23 20 17 17 10
33 35 35 33 26 21 21 22 27 29 31 31 28 22 28 28 35 37 33 42 38 33 44 42 33 31 29 23 18 20 24 25 21 19 19 21 23 23 20 21 18 17 18
37 40 39 36 32 27 27 31 34 33 31 31 28 24 26 35 35 36 42 44 34 33 31 39 28 25 22 21 25 31 32 30 25 21 18 14 16 14 13 14 16 19 19
45 43 44 39 36 34 36 37 41 38 34 31 28 29 30 36 35 32 39 49 36 33 33 33 27 25 24 22 25 31 28 27 26 19 16 14 15 15 14 12 14 16 17
48 43 46 43 39 35 41 42 41 39 38 30 24 30 32 35 36 33 32 37 39 37 34 33 34 29 30 27 29 25 26 24 20 20 18 16 17 15 13 13 13 12 11
44 44 49 47 45 39 45 47 44 40 36 32 30 31 35 36 40 39 33 34 40 38 40 38 36 36 37 36 27 23 15 17 20 19 19 20 17 15 13 12 10 8 7
47 48 53 51 49 43 47 49 46 42 37 34 32 36 36 40 33 37 35 32 39 42 40 43 42 43 39 33 29 22 19 18 19 22 21 20 19 18 16 14 13 12 13
51 52 55 55 52 49 48 51 48 47 45 41 41 43 38 45 44 39 32 30 36 43 43 46 47 41 37 33 28 25 24 23 23 23 22 21 21 21 21 21 20 17 17
51 55 57 60 58 52 54 52 48 48 50 47 48 46 45 46 44 42 37 41 46 47 46 43 39 38 34 31 32 30 27 27 25 23 23 25 28 29 26 23 22 28 30
45 54 59 64 63 58 57 56 57 50 51 51 44 42 43 49 49 47 48 48 46 45 45 42 39 38 36 33 31 29 31 30 27 26 28 31 32 30 29 33 34 36 33
44 56 62 66 69 65 62 60 61 62 58 52 45 39 30 32 46 45 45 47 47 43 44 39 36 35 35 34 34 35 33 29 33 33 33 33 32 34 37 42 42 38 34
38 53 62 66 73 73 70 70 68 68 63 60 53 42 31 37 44 48 53 50 46 43 39 37 37 39 38 37 35 33 33 37 36 36 35 35 35 39 43 46 45 39 35
28 45 61 67 73 77 75 73 73 71 70 66 61 50 42 39 47 54 55 51 48 45 40 38 39 40 39 36 36 35 38 38 39 37 36 37 41 44 47 46 41 36 32
29 39 52 62 71 76 80 78 77 74 74 76 74 66 54 49 51 55 57 54 50 49 46 43 40 37 37 35 34 37 37 38 40 40 42 45 48 49 48 44 40 34 29
39 39 47 53 65 73 83 85 83 78 78 83 82 79 72 69 66 63 61 59 56 53 53 53 45 37 34 32 37 40 40 43 44 46 46 48 50 49 47 43 37 32 29
43 44 44 56 68 76 86 90 85 84 85 89 85 82 78 70 62 71 71 69 64 60 60 59 50 41 34 37 38 40 44 47 48 47 50 54 57 55 49 43 38 32 27
43 48 49 52 66 76 83 87 84 83 88 91 87 82 78 75 68 65 71 72 66 63 63 62 53 45 38 37 41 43 46 47 46 47 53 59 60 56 50 44 40 35 31
48 53 53 61 62 71 79 86 87 84 89 94 90 87 86 78 71 67 66 72 68 65 66 68 60 54 47 41 42 40 39 39 41 47 57 62 60 57 52 46 41 37 33
60 58 60 62 71 71 77 85 90 86 87 94 96 91 88 81 71 67 66 67 68 68 68 70 66 59 53 45 43 45 46 47 46 50 56 60 61 57 52 46 42 37 31
63 68 66 67 72 83 82 85 90 91 88 93 98 96 90 86 78 70 69 72 71 71 70 71 68 64 59 51 43 45 48 48 49 55 61 62 59 55 51 47 42 37 31
67 70 75 70 73 81 91 93 91 96 90 90 97 98 95 90 83 75 72 76 76 75 74 72 69 66 65 61 54 50 50 48 51 59 64 63 59 57 53 47 41 36 30
Wind_Direction_850mb
231 216 201 193 188 199 226 222 214 211 193 186 191 191 152 139 119 136 151 148 146 149 158 161 154 158 165 168 169 176 173 172 176 179 180 181 183 180 182 182 185 185 205
231 214 208 193 195 204 227 237 236 212 202 183 181 173 162 119 121 134 142 169 156 160 156 147 163 167 154 154 170 169 173 177 160 185 187 186 186 187 185 179 187 186 194
233 213 208 203 201 205 231 235 227 209 203 196 189 181 168 152 134 136 151 155 168 171 152 137 139 144 148 161 172 189 195 213 221 234 206 190 185 185 180 177 177 196 206
230 216 208 207 209 214 231 239 230 232 210 193 188 179 153 142 170 144 140 143 142 149 151 148 151 156 155 165 179 193 193 200 218 191 183 180 177 177 175 182 184 192 203
229 218 208 204 209 211 204 212 225 215 201 176 174 168 149 139 159 147 146 148 147 152 152 157 156 157 158 151 161 177 188 189 168 164 163 168 174 176 180 187 196 193 204
224 217 205 205 211 194 193 210 212 195 169 154 155 161 162 159 160 159 149 152 148 150 158 161 165 164 166 179 182 184 164 189 169 156 165 164 169 173 171 177 184 181 186
218 217 206 202 204 183 189 191 172 167 160 156 152 159 171 163 157 161 160 156 156 151 163 159 166 163 164 166 178 167 153 141 142 145 155 153 155 162 165 167 163 187 212
215 214 208 201 191 185 181 177 168 160 162 159 162 160 162 162 158 164 170 170 163 160 159 169 169 166 179 174 175 171 160 150 146 146 148 151 158 157 166 177 193 207 210
214 212 208 202 192 193 184 179 173 170 174 176 171 166 171 166 164 170 180 189 193 182 177 182 181 182 175 181 176 174 165 156 146 153 154 156 156 167 177 187 193 189 182
216 212 207 203 199 193 188 187 187 187 183 189 184 180 186 186 179 181 185 187 193 192 191 202 196 186 173 168 171 171 166 160 159 160 157 159 163 163 167 173 179 194 195
220 212 209 205 200 196 195 196 197 198 190 197 193 194 184 188 193 191 190 200 201 197 190 178 175 174 164 158 158 156 167 173 167 160 165 168 162 160 163 161 165 165 167
218 213 211 206 200 198 201 198 203 202 200 199 202 197 192 185 178 187 192 199 207 208 190 177 169 165 164 161 161 166 177 176 170 173 176 164 156 153 154 146 133 128 128
218 215 212 207 203 202 205 199 205 209 209 203 195 192 186 178 184 183 184 187 186 183 176 170 166 165 166 167 175 182 183 178 182 179 169 162 159 157 146 141 136 134 133
219 218 211 208 205 206 201 202 210 207 201 201 190 190 187 177 180 171 175 176 176 174 169 167 170 170 175 184 185 184 183 180 180 179 180 172 162 151 147 143 148 137 132
217 220 215 211 210 210 207 212 209 206 202 199 199 195 190 191 186 177 171 171 175 177 177 177 180 184 187 191 194 193 187 184 184 186 182 170 159 156 157 153 144 134 133
222 217 217 214 212 215 215 211 207 206 207 206 203 188 192 204 195 185 182 184 176 185 186 191 193 199 202 202 198 196 194 197 190 187 174 167 167 165 164 150 139 138 136
233 222 220 218 216 219 217 214 209 207 209 203 195 194 197 206 201 198 188 182 186 191 200 202 204 201 198 198 203 209 211 193 187 180 175 174 173 167 158 148 145 144 140
237 229 224 223 221 222 224 222 219 219 214 196 193 193 192 205 204 198 192 191 196 200 205 208 204 200 200 205 208 204 193 189 183 180 180 180 173 165 157 153 149 148 144
242 232 231 226 226 224 230 228 225 221 214 200 195 189 193 208 207 203 203 204 213 213 205 201 201 206 206 206 204 197 195 192 187 187 188 181 171 166 160 158 155 151 151
254 239 232 236 228 227 230 234 229 222 216 206 202 193 192 200 211 211 211 212 212 213 206 197 199 199 204 205 198 197 196 193 193 193 187 178 171 168 168 163 160 160 159
260 245 238 237 230 228 230 235 233 229 220 210 208 206 204 211 220 219 217 217 212 208 206 201 200 202 204 203 201 202 199 200 199 193 184 180 176 172 171 169 167 166 168
262 252 240 240 233 229 231 235 236 233 225 214 210 210 210 210 213 221 219 218 214 208 207 208 206 207 209 208 203 201 201 201 200 195 189 185 181 176 177 177 174 173 172
261 255 249 236 236 230 230 232 237 234 228 221 216 213 212 212 214 220 222 220 216 212 209 209 211 212 208 205 202 201 203 205 205 203 195 189 184 181 181 182 180 179 177
255 255 253 246 235 232 228 229 233 238 235 228 222 219 217 215 214 218 222 220 218 216 213 212 212 214 215 210 205 203 201 201 203 202 197 193 189 185 184 184 184 183 181
254 251 251 249 240 235 233 227 230 233 238 234 227 223 220 219 217 218 220 219 219 219 217 214 212 213 215 214 215 211 208 208 205 198 194 193 193 190 189 189 191 186 183
251 247 249 247 247 239 234 231 227 231 235 236 232 227 225 222 218 218 220 221 219 218 218 216 214 216 216 214 213 216 212 208 209 198 195 193 194 192 191 191 190 189 186